Location: Newark
(59.4564°N, 26.6917°E)
Time: 08:24:52
(UTC+00:00)

Envisat - Visible Passes

Search period start: 15 October 2019 00:00
Search period end: 25 October 2019 00:00
Orbit: 764 x 766 km, 98.1° (Epoch: 15 October)

Date Brightness Start Highest point End Pass type
(mag) Time Alt. Az. Time Alt. Az. Time Alt. Az.
15 Oct 3.0 15:40:43 10° SSE 15:45:49 79° ENE 15:50:56 10° NNW visible
15 Oct 5.4 17:21:18 10° SW 17:25:26 25° W 17:29:36 10° NW visible
16 Oct 6.2 03:41:04 10° NE 03:43:56 15° E 03:46:48 10° ESE visible
16 Oct 4.4 16:43:29 10° SSW 16:48:18 42° W 16:53:09 10° NNW visible
17 Oct 3.3 16:06:16 10° S 16:11:21 73° WSW 16:16:28 10° NNW visible
17 Oct 5.9 17:48:03 10° WSW 17:51:18 17° W 17:54:34 10° NW visible
18 Oct 5.9 04:05:56 10° NE 04:09:51 22° E 04:13:45 10° SE visible
18 Oct 5.1 17:09:39 10° SSW 17:14:02 29° W 17:18:27 10° NNW visible
19 Oct 6.4 03:30:19 10° NE 03:32:29 13° E 03:34:38 10° ESE visible
19 Oct 4.0 16:32:02 10° S 16:36:57 49° W 16:41:55 10° NNW visible
19 Oct 6.2 18:15:48 10° W 18:17:17 11° WNW 18:18:45 10° WNW visible
20 Oct 3.1 15:54:57 10° SSE 16:00:03 85° WSW 16:05:12 10° NNW visible
20 Oct 5.7 17:36:11 10° SW 17:39:53 20° W 17:43:34 10° NW visible
21 Oct 6.0 03:54:52 10° NE 03:58:26 19° E 04:01:58 10° SE visible
21 Oct 4.8 16:58:03 10° SSW 17:02:39 33° W 17:07:17 10° NNW visible
22 Oct 6.6 03:20:08 10° ENE 03:21:00 10° ENE 03:21:52 10° E visible
22 Oct 3.7 16:20:37 10° S 16:25:39 58° W 16:30:42 10° NNW visible
22 Oct 6.1 18:03:22 10° WSW 18:05:48 13° W 18:08:15 10° NW visible
23 Oct 5.5 04:19:56 10° NNE 04:24:17 27° E 04:28:35 10° SSE visible
23 Oct 3.0 15:43:42 10° SSE 15:48:47 83° ENE 15:53:55 10° NNW visible
23 Oct 5.4 17:24:26 10° SW 17:28:27 23° W 17:32:30 10° NW visible
24 Oct 6.1 03:43:54 10° NE 03:47:00 16° E 03:50:03 10° ESE visible
24 Oct 4.5 16:46:32 10° SSW 16:51:18 39° W 16:56:06 10° NNW visible
